Starlink 5622

operational
NORAD ID: 55358 Int'l Des: 2023-013 Owner: SPXS Country: US Constellation: starlink
LEOCIRCULAR

Über Starlink 5622

Beschreibung wird geladen...

Live-Position

3D-Globus wird geladen...

Nächste Überflüge

Höhenverlauf

Altitude vs Time

uPlot chart will show altitude changes over time

Zweizeiliger Elementsatz

1 55358U 23013AD 25306.19253368 .00000203 00000-0 30103-4 0 9994
2 55358 43.0063 272.8466 0001587 273.6521 86.4140 15.02530931152534
Epoch: 2. Nov. 2025 • Age: 17 hours

Aktueller Status

Höhe 560.6 km
Geschwindigkeit 7.58 km/s
Subsatellitenpunkt -11.29°S, 117.29°W
Startdatum 26. Jan. 2023
Alter 2.7 years
Typ internet

Technische Details

Klassifizierung Payload
Masse 305.00 kg
Trockenmasse 290.00 kg
Gesamtmasse 305.00 kg
Länge 0.20 m
Durchmesser 2.80 m
Spannweite 9.00 m
Form Box + pan
Hersteller SPXS
Bus-Typ Starlink
Phasenstatus In Orbit
Besitzer/Staat SPXS/US

Große Konstellationen

Loading constellations...